This demonstration page uses our WeatherBlox Daily Observations layout. Learn more.

Left ArrowRight Arrow

Hourly Observations for February 3, 2015

Temp ( °F °C ) Dew Point ( °F °C ) Humidity (%) Winds ( mph kmh ) Pressure ( in mb ) Visibility ( mi km ) Precip ( " mm )
12:51 am 00:51 Clear 44 6.7 41 5 89 89 SSE 5 7 30.04 1017 10 16 0.00 0.00
1:51 am 01:51 Clear 44 6.7 41 5 89 89 NW 6 9 30.03 1017 10 16 0.00 0.00
2:51 am 02:51 Clear 43 6.1 41 5 93 93 Calm 30.03 1017 10 16 0.00 0.00
3:51 am 03:51 Clear 42 5.6 40 4.4 92 92 NNE 5 7 30.03 1017 10 16 0.00 0.00
4:51 am 04:51 Clear 42 5.6 40 4.4 92 92 E 3 6 30.02 1017 10 16 0.00 0.00
5:51 am 05:51 Clear 40 4.4 38 3.3 93 93 Calm 30.05 1018 10 16 0.00 0.00
6:51 am 06:51 Clear 39 3.9 37 2.8 93 93 Calm 30.09 1019 10 16 0.00 0.00
7:51 am 07:51 Sunny 42 5.6 39 3.9 89 89 ENE 6 9 30.09 1019 10 16 0.00 0.00
8:51 am 08:51 Sunny 49 9.4 39 3.9 69 69 SSE 6 9 30.10 1019 10 16 0.00 0.00
9:51 am 09:51 Sunny 53 11.7 41 5 64 64 WSW 5 7 30.11 1020 10 16 0.00 0.00
10:51 am 10:51 Sunny 59 15 41 5 51 51 Calm 30.09 1019 10 16 0.00 0.00
11:51 am 11:51 Sunny 60 15.6 41 5 50 50 SE 5 7 30.09 1019 10 16 0.00 0.00
12:51 pm 12:51 Sunny 62 16.7 42 5.6 48 48 WSW 3 6 30.04 1017 10 16 0.00 0.00
1:51 pm 13:51 Sunny 65 18.3 40 4.4 40 40 Calm 30.00 1016 10 16 0.00 0.00
2:51 pm 14:51 Sunny 66 18.9 38 3.3 36 36 WNW 6 9 29.97 1015 10 16 0.00 0.00
3:51 pm 15:51 Sunny 69 20.6 41 5 36 36 WNW 8 13 29.96 1014 10 16 0.00 0.00
4:51 pm 16:51 Sunny 67 19.4 40 4.4 37 37 W 7 11 29.96 1014 10 16 0.00 0.00
5:51 pm 17:51 Sunny 62 16.7 43 6.1 50 50 WNW 10 17 29.97 1015 10 16 0.00 0.00
6:51 pm 18:51 Clear 59 15 44 6.7 58 58 WNW 6 9 30.00 1016 10 16 0.00 0.00
7:51 pm 19:51 Clear 58 14.4 40 4.4 51 51 WNW 9 15 30.00 1016 10 16 0.00 0.00
8:51 pm 20:51 Clear 56 13.3 40 4.4 55 55 Calm 30.01 1016 10 16 0.00 0.00
9:51 pm 21:51 Clear 51 10.6 42 5.6 71 71 NNW 6 9 30.03 1017 10 16 0.00 0.00
10:51 pm 22:51 Clear 52 11.1 41 5 66 66 NW 5 7 30.01 1016 10 16 0.00 0.00
11:51 pm 23:51 Clear 49 9.4 43 6.1 80 80 SE 5 7 30.02 1017 10 16 0.00 0.00

Powered by AerisWeather